Location: *
(58.7167°N, 26.1833°E)
Time: 05:35:16
(UTC+00:00)

Cosmos 1980 Rocket - Pass Details

Date: 25 August 2019
Orbit: 829 x 850 km, 71.0° (Epoch: 22 September)

Event Time Altitude Azimuth Distance (km) Brightness Sun altitude
Rises 18:11:12 0° 320° (NW) 3,392 6.9 -4.9°
Reaches altitude 10° 18:13:39 10° 323° (NW) 2,458 6.0 -5.1°
Maximum altitude 18:19:18 74° 49° (NE) 875 2.3 -5.8°
Drops below altitude 10° 18:24:57 10° 135° (SE) 2,459 4.0 -6.4°
Enters shadow 18:25:37 - 136° (SE) 2,710 4.2 -6.5°
